Location: Serpukhov
(54.9240°N, 37.4330°E)
Time: 09:56:26
(UTC+03:00)

ISS - Visible Passes

Search period start: 16 July 2019 00:00
Search period end: 26 July 2019 00:00
Orbit: 409 x 418 km, 51.6° (Epoch: 16 July)

Date Brightness Start Highest point End Pass type
(mag) Time Alt. Az. Time Alt. Az. Time Alt. Az.
16 Jul -3.6 01:00:10 10° WSW 01:03:22 46° S 01:06:35 10° E visible
16 Jul -3.3 02:36:38 10° W 02:39:45 38° SSW 02:42:52 10° SE visible
16 Jul -2.3 22:35:36 10° SSW 22:38:00 18° SSE 22:40:24 10° ESE visible
17 Jul -3.4 00:10:59 10° WSW 00:14:09 41° S 00:17:19 10° E visible
17 Jul -3.5 01:47:22 10° W 01:50:33 43° S 01:53:43 10° ESE visible
17 Jul -2.0 21:47:11 10° S 21:48:55 14° SE 21:50:40 10° ESE visible
17 Jul -3.2 23:21:52 10° SW 23:24:57 35° SSE 23:28:02 10° E visible
18 Jul -3.6 00:58:05 10° WSW 01:01:19 47° S 01:04:32 10° ESE visible
18 Jul -2.8 02:34:45 10° W 02:37:37 26° SSW 02:40:27 10° SE visible
18 Jul -2.9 22:32:49 10° SW 22:35:45 29° SSE 22:38:41 10° E visible
19 Jul -3.6 00:08:51 10° WSW 00:12:04 48° S 00:15:17 10° ESE visible
19 Jul -3.1 01:45:23 10° W 01:48:25 33° SSW 01:51:27 10° SE visible
19 Jul -1.8 03:23:04 10° WSW 03:24:24 12° SW 03:25:44 10° SSW visible
19 Jul -2.5 21:43:54 10° SSW 21:46:35 23° SSE 21:49:16 10° E visible
19 Jul -3.5 23:19:36 10° WSW 23:22:49 45° S 23:26:01 10° E visible
20 Jul -3.4 00:56:03 10° W 00:59:12 39° SSW 01:02:20 10° ESE visible
20 Jul -2.2 02:33:07 10° WSW 02:35:19 17° SSW 02:37:30 10° S visible
20 Jul -3.3 22:30:24 10° WSW 22:33:33 40° SSE 22:36:43 10° E visible
21 Jul -3.5 00:06:44 10° W 00:09:57 45° S 00:12:27 15° ESE visible
21 Jul -2.2 01:43:31 10° W 01:45:10 19° SW 01:45:10 19° SW visible
21 Jul -3.1 21:41:15 10° SW 21:44:19 34° SSE 21:47:22 10° E visible
21 Jul -3.6 23:17:26 10° WSW 23:20:40 47° S 23:23:42 11° ESE visible
22 Jul -2.7 00:54:03 10° W 00:56:29 27° SW 00:56:29 27° SW visible
22 Jul -3.5 22:28:08 10° WSW 22:31:22 47° S 22:34:36 10° ESE visible
23 Jul -3.2 00:04:39 10° W 00:07:44 35° SSW 00:08:12 33° S visible
23 Jul -3.4 21:38:52 10° WSW 21:42:04 44° S 21:45:16 10° E visible
23 Jul -3.4 23:15:17 10° W 23:18:27 41° SSW 23:20:07 23° SE visible
24 Jul -1.5 00:52:15 10° WSW 00:52:55 13° WSW 00:52:55 13° WSW visible
24 Jul -3.4 22:25:56 10° W 22:29:09 46° S 22:32:06 12° ESE visible
25 Jul -2.4 00:02:39 10° W 00:04:54 23° SW 00:04:54 23° SW visible
25 Jul -3.4 21:36:35 10° WSW 21:39:50 48° S 21:43:04 10° ESE visible
25 Jul -2.8 23:13:10 10° W 23:16:09 30° SSW 23:16:56 27° S visible
